When you browse on this site, cookies collect data to enhance your experience and personalize the content and advertising you see.
Visit our Privacy Policy to learn more. By continuing to use the site, you agree to this use of cookies and data.
  • In Belgium
  • List of Countries
  • For 7 days
  • Water Temperature
  • Weather Map
  • Weather Widgets
  • user-avatar
    Login

    Hourly Weather Moung

    Today, 12 November, Tuesday

    Time Temperature Precipitation Wind Pressure Humidity
    00:00 +24°C° 0.1 mm 2 mps 756 mmHg 94%
    01:00 +24°C° 0.1 mm 2 mps 756 mmHg 94%
    02:00 +24°C° 0.1 mm 1 mps 756 mmHg 95%
    03:00 +24°C° 0.1 mm 1 mps 756 mmHg 95%
    04:00 +22°C° 0.1 mm 0 mps 756 mmHg 95%
    05:00 +24°C° 0 mm 1 mps 756 mmHg 94%
    06:00 +24°C° 0 mm 1 mps 757 mmHg 94%
    07:00 +24°C° 0 mm 2 mps 757 mmHg 93%
    08:00 +25°C° 0 mm 1 mps 757 mmHg 87%
    09:00 +26°C° 0 mm 1 mps 758 mmHg 82%
    10:00 +27°C° 0 mm 1 mps 758 mmHg 76%
    11:00 +29°C° 0 mm 1 mps 757 mmHg 72%
    12:00 +30°C° 0 mm 1 mps 757 mmHg 68%
    13:00 +29°C° 0 mm 0 mps 756 mmHg 64%
    14:00 +31°C° 0 mm 1 mps 756 mmHg 63%
    15:00 +31°C° 0 mm 1 mps 755 mmHg 62%
    16:00 +31°C° 0 mm 1 mps 755 mmHg 61%
    17:00 +30°C° 0 mm 1 mps 755 mmHg 67%
    18:00 +28°C° 0 mm 1 mps 756 mmHg 73%
    19:00 +27°C° 0 mm 1 mps 756 mmHg 79%
    20:00 +27°C° 0 mm 1 mps 757 mmHg 81%
    21:00 +26°C° 0 mm 2 mps 757 mmHg 83%
    22:00 +26°C° 0 mm 2 mps 758 mmHg 86%
    23:00 +26°C° 0 mm 1 mps 758 mmHg 87%

    Tomorrow, 13 November, Wednesday

    Time Temperature Precipitation Wind Pressure Humidity
    00:00 +25°C° 0 mm 1 mps 758 mmHg 88%
    01:00 +25°C° 0 mm 1 mps 757 mmHg 90%
    02:00 +25°C° 0 mm 1 mps 757 mmHg 89%
    03:00 +25°C° 0 mm 1 mps 757 mmHg 89%
    04:00 +25°C° 0 mm 1 mps 757 mmHg 88%
    05:00 +25°C° 0 mm 1 mps 758 mmHg 88%
    06:00 +26°C° 0 mm 2 mps 758 mmHg 87%
    07:00 +26°C° 0 mm 2 mps 758 mmHg 87%
    08:00 +27°C° 0.1 mm 2 mps 759 mmHg 83%
    09:00 +28°C° 0.1 mm 2 mps 759 mmHg 79%
    10:00 +29°C° 0.1 mm 2 mps 759 mmHg 74%
    11:00 +30°C° 0.1 mm 2 mps 758 mmHg 69%
    12:00 +31°C° 0.1 mm 2 mps 758 mmHg 64%
    13:00 +34°C° 0.1 mm 2 mps 757 mmHg 58%
    14:00 +34°C° 0 mm 2 mps 756 mmHg 58%
    15:00 +34°C° 0 mm 2 mps 756 mmHg 58%
    16:00 +34°C° 0 mm 2 mps 756 mmHg 58%
    17:00 +31°C° 0 mm 2 mps 756 mmHg 64%
    18:00 +30°C° 0 mm 2 mps 757 mmHg 70%
    19:00 +29°C° 0 mm 2 mps 757 mmHg 76%
    20:00 +29°C° 0.1 mm 2 mps 758 mmHg 78%
    21:00 +28°C° 0.1 mm 2 mps 758 mmHg 80%
    22:00 +28°C° 0.1 mm 1 mps 759 mmHg 82%
    23:00 +28°C° 0.2 mm 1 mps 758 mmHg 84%

    Day after tomorrow, 14 November, Thursday

    Time Temperature Precipitation Wind Pressure Humidity
    00:00 +27°C° 0.2 mm 1 mps 758 mmHg 86%
    01:00 +27°C° 0.2 mm 1 mps 758 mmHg 89%
    02:00 +27°C° 0.1 mm 1 mps 757 mmHg 89%
    03:00 +26°C° 0.1 mm 1 mps 757 mmHg 89%
    04:00 +26°C° 0.1 mm 1 mps 757 mmHg 89%
    05:00 +26°C° 0 mm 1 mps 757 mmHg 89%
    06:00 +26°C° 0 mm 2 mps 758 mmHg 89%
    07:00 +27°C° 0 mm 3 mps 758 mmHg 89%
    08:00 +28°C° 0 mm 4 mps 759 mmHg 78%
    09:00 +29°C° 0 mm 5 mps 759 mmHg 68%
    10:00 +32°C° 0 mm 7 mps 759 mmHg 58%
    11:00 +33°C° 0 mm 7 mps 758 mmHg 56%
    12:00 +33°C° 0 mm 7 mps 757 mmHg 53%
    13:00 +34°C° 0 mm 8 mps 757 mmHg 51%
    14:00 +33°C° 0 mm 7 mps 756 mmHg 54%
    15:00 +32°C° 0 mm 7 mps 756 mmHg 57%
    16:00 +32°C° 0 mm 6 mps 755 mmHg 61%
    17:00 +30°C° 0 mm 6 mps 756 mmHg 63%
    18:00 +29°C° 0 mm 5 mps 756 mmHg 66%
    19:00 +28°C° 0 mm 5 mps 757 mmHg 69%
    20:00 +27°C° 0 mm 4 mps 757 mmHg 68%
    21:00 +27°C° 0 mm 4 mps 757 mmHg 67%
    22:00 +26°C° 0 mm 4 mps 758 mmHg 66%
    23:00 +26°C° 0 mm 4 mps 758 mmHg 68%

    15 November, Friday

    Time Temperature Precipitation Wind Pressure Humidity
    00:00 +25°C° 0 mm 3 mps 757 mmHg 70%
    01:00 +25°C° 0 mm 3 mps 757 mmHg 72%
    02:00 +24°C° 0 mm 3 mps 757 mmHg 74%
    03:00 +24°C° 0 mm 3 mps 757 mmHg 77%
    04:00 +23°C° 0 mm 2 mps 756 mmHg 79%
    05:00 +24°C° 0 mm 3 mps 757 mmHg 79%
    06:00 +24°C° 0 mm 3 mps 757 mmHg 79%
    07:00 +24°C° 0 mm 3 mps 758 mmHg 78%
    08:00 +26°C° 0 mm 5 mps 758 mmHg 72%
    09:00 +28°C° 0 mm 6 mps 758 mmHg 66%
    10:00 +30°C° 0 mm 7 mps 758 mmHg 60%
    11:00 +32°C° 0 mm 6 mps 758 mmHg 59%
    12:00 +32°C° 0 mm 5 mps 757 mmHg 57%
    13:00 +33°C° 0 mm 5 mps 756 mmHg 56%
    14:00 +33°C° 0 mm 4 mps 756 mmHg 57%
    15:00 +33°C° 0 mm 4 mps 755 mmHg 58%
    16:00 +32°C° 0 mm 4 mps 755 mmHg 60%
    17:00 +30°C° 0 mm 3 mps 755 mmHg 64%
    18:00 +29°C° 0 mm 3 mps 756 mmHg 69%
    19:00 +28°C° 0 mm 3 mps 757 mmHg 74%
    20:00 +27°C° 0 mm 2 mps 757 mmHg 75%
    21:00 +27°C° 0 mm 2 mps 757 mmHg 76%
    22:00 +27°C° 0 mm 2 mps 758 mmHg 77%
    23:00 +26°C° 0 mm 2 mps 757 mmHg 78%

    16 November, Saturday

    Time Temperature Precipitation Wind Pressure Humidity
    00:00 +26°C° 0 mm 2 mps 757 mmHg 78%
    01:00 +26°C° 0 mm 2 mps 756 mmHg 79%
    02:00 +26°C° 0 mm 2 mps 756 mmHg 80%
    03:00 +25°C° 0 mm 2 mps 756 mmHg 81%
    04:00 +25°C° 0 mm 2 mps 756 mmHg 82%
    05:00 +25°C° 0 mm 2 mps 756 mmHg 82%
    06:00 +25°C° 0 mm 2 mps 757 mmHg 82%
    07:00 +26°C° 0 mm 2 mps 757 mmHg 82%
    08:00 +27°C° 0 mm 2 mps 757 mmHg 75%
    09:00 +29°C° 0 mm 3 mps 757 mmHg 68%
    10:00 +30°C° 0 mm 3 mps 758 mmHg 62%
    11:00 +31°C° 0 mm 3 mps 757 mmHg 58%
    12:00 +33°C° 0 mm 3 mps 756 mmHg 55%
    13:00 +34°C° 0 mm 4 mps 756 mmHg 51%
    14:00 +34°C° 0 mm 4 mps 755 mmHg 53%
    15:00 +34°C° 0 mm 4 mps 755 mmHg 55%
    16:00 +33°C° 0 mm 4 mps 754 mmHg 57%
    17:00 +31°C° 0 mm 3 mps 755 mmHg 61%
    18:00 +30°C° 0 mm 2 mps 756 mmHg 66%
    19:00 +29°C° 0 mm 2 mps 756 mmHg 71%
    20:00 +28°C° 0 mm 1 mps 757 mmHg 73%
    21:00 +28°C° 0 mm 1 mps 757 mmHg 74%
    22:00 +28°C° 0 mm 1 mps 758 mmHg 76%
    23:00 +27°C° 0 mm 1 mps 757 mmHg 77%

    17 November, Sunday

    Time Temperature Precipitation Wind Pressure Humidity
    00:00 +27°C° 0 mm 1 mps 757 mmHg 78%
    01:00 +25°C° 0 mm 0 mps 757 mmHg 79%
    02:00 +25°C° 0 mm 0 mps 757 mmHg 81%
    03:00 +25°C° 0 mm 0 mps 756 mmHg 82%
    04:00 +24°C° 0 mm 0 mps 756 mmHg 83%
    05:00 +24°C° 0 mm 0 mps 757 mmHg 83%
    06:00 +25°C° 0 mm 0 mps 757 mmHg 82%
    07:00 +25°C° 0 mm 0 mps 758 mmHg 81%
    08:00 +26°C° 0 mm 0 mps 758 mmHg 76%
    09:00 +30°C° 0 mm 1 mps 758 mmHg 71%
    10:00 +31°C° 0 mm 1 mps 758 mmHg 65%
    11:00 +32°C° 0.1 mm 1 mps 757 mmHg 63%
    12:00 +32°C° 0.1 mm 1 mps 757 mmHg 61%
    13:00 +34°C° 0.1 mm 2 mps 756 mmHg 58%
    14:00 +33°C° 0.5 mm 1 mps 755 mmHg 59%
    15:00 +33°C° 0.5 mm 1 mps 755 mmHg 59%
    16:00 +33°C° 0.5 mm 1 mps 755 mmHg 60%
    17:00 +31°C° 1.3 mm 1 mps 755 mmHg 67%
    18:00 +30°C° 1.3 mm 1 mps 756 mmHg 73%
    19:00 +29°C° 1.3 mm 1 mps 757 mmHg 80%
    20:00 +28°C° 0.7 mm 1 mps 757 mmHg 80%
    21:00 +28°C° 0.7 mm 1 mps 757 mmHg 80%
    22:00 +28°C° 0.7 mm 1 mps 758 mmHg 80%
    23:00 +28°C° 1 mm 1 mps 758 mmHg 82%
    Show more